AUR801 EFMA-EGJB

Flight info

Callsign AUR801
Flight time N/A
Altitude 34000
Route OGLOB DCT TIPIX N872 ELPAX Z703 UMIXA DCT EKDIV Z703 ALS N872 PAM L980 IDRID M40 NILON L610 GILDA L620 SAM N63 LELNA
Aircraft E195/M-SDE3GILORVW/S

Departure

Time 2026-04-17 19:05
Airport Mariehamn Airport (EFMA)

Arrival

Time N/A
Airport Guernsey Airport (EGJB)
Time Latitude Longitude Altitude Speed Heading
2026-04-17 18:48 60.12474 19.90656 22 ft 0 kts 144°
2026-04-17 19:01 60.12473 19.90656 22 ft 0 kts 145°
2026-04-17 19:01 60.12467 19.90655 22 ft 1 kts 179°
2026-04-17 19:01 60.12464 19.90635 26 ft 2 kts 260°
2026-04-17 19:02 60.12481 19.90568 22 ft 9 kts 295°
2026-04-17 19:02 60.12516 19.90401 23 ft 17 kts 292°
2026-04-17 19:02 60.12582 19.90173 23 ft 19 kts 333°
2026-04-17 19:02 60.12707 19.90244 25 ft 19 kts 23°
2026-04-17 19:03 60.12839 19.90354 26 ft 22 kts 22°
2026-04-17 19:03 60.12959 19.90498 28 ft 11 kts 34°
2026-04-17 19:03 60.12966 19.90459 28 ft 5 kts 202°
2026-04-17 19:03 60.12952 19.90447 27 ft 4 kts 202°
2026-04-17 19:04 60.12724 19.90251 25 ft 68 kts 202°
2026-04-17 19:04 60.12099 19.89712 20 ft 126 kts 204°
2026-04-17 19:04 60.11156 19.88889 65 ft 165 kts 204°
2026-04-17 19:04 60.10050 19.87993 538 ft 176 kts 202°
2026-04-17 19:05 60.08903 19.87082 1242 ft 179 kts 203°
2026-04-17 19:05 60.07792 19.86140 1611 ft 175 kts 205°
2026-04-17 19:05 60.06674 19.85083 1972 ft 176 kts 207°
2026-04-17 19:05 60.05562 19.84057 2378 ft 177 kts 205°
2026-04-17 19:06 60.04417 19.83058 2719 ft 182 kts 204°
2026-04-17 19:06 60.03218 19.82033 3029 ft 192 kts 204°
2026-04-17 19:06 60.01960 19.80952 3313 ft 206 kts 204°
2026-04-17 19:06 60.00582 19.79770 3523 ft 224 kts 204°
2026-04-17 19:07 59.99085 19.78461 3753 ft 245 kts 208°
2026-04-17 19:07 59.97676 19.76297 3866 ft 268 kts 236°
2026-04-17 19:07 59.96979 19.72910 4435 ft 268 kts 258°
2026-04-17 19:07 59.96510 19.69240 5158 ft 269 kts 257°
2026-04-17 19:08 59.96001 19.65643 5838 ft 270 kts 256°
2026-04-17 19:08 59.95478 19.62044 6502 ft 271 kts 256°
2026-04-17 19:08 59.94962 19.58416 7070 ft 272 kts 256°
2026-04-17 19:08 59.94456 19.54767 7633 ft 273 kts 256°
2026-04-17 19:09 59.93957 19.51096 8189 ft 275 kts 257°
2026-04-17 19:09 59.93460 19.47419 8696 ft 276 kts 255°
2026-04-17 19:09 59.92697 19.43887 9229 ft 279 kts 242°
2026-04-17 19:09 59.91635 19.40630 9777 ft 281 kts 237°
2026-04-17 19:10 59.90509 19.37432 10336 ft 283 kts 237°
2026-04-17 19:10 59.89372 19.34116 10520 ft 298 kts 238°
2026-04-17 19:10 59.88202 19.30604 10791 ft 308 kts 238°
2026-04-17 19:10 59.87014 19.27002 11195 ft 314 kts 238°
2026-04-17 19:11 59.85807 19.23351 11726 ft 315 kts 238°
2026-04-17 19:11 59.84606 19.19709 12302 ft 315 kts 238°
2026-04-17 19:11 59.83403 19.16072 12893 ft 315 kts 238°
2026-04-17 19:11 59.82193 19.12423 13428 ft 317 kts 238°
2026-04-17 19:12 59.80973 19.08746 13930 ft 320 kts 238°
2026-04-17 19:12 59.79760 19.05088 14387 ft 324 kts 239°
2026-04-17 19:12 59.78512 19.01330 14842 ft 326 kts 238°
2026-04-17 19:12 59.77252 18.97562 15281 ft 330 kts 238°
2026-04-17 19:13 59.75975 18.93749 15739 ft 333 kts 238°
2026-04-17 19:13 59.74690 18.89912 16165 ft 336 kts 238°
2026-04-17 19:13 59.73386 18.86031 16624 ft 339 kts 238°
2026-04-17 19:13 59.72072 18.82123 17075 ft 343 kts 238°
2026-04-17 19:14 59.70745 18.78186 17534 ft 346 kts 238°
2026-04-17 19:14 59.69401 18.74199 17989 ft 349 kts 238°
2026-04-17 19:14 59.68485 18.71486 18315 ft 351 kts 238°
2026-04-17 19:14 59.67121 18.67455 18752 ft 354 kts 238°
2026-04-17 19:15 59.65750 18.63406 19206 ft 356 kts 238°
2026-04-17 19:15 59.64379 18.59373 19648 ft 358 kts 238°
2026-04-17 19:15 59.62988 18.55287 20072 ft 360 kts 238°
2026-04-17 19:15 59.61581 18.51155 20526 ft 362 kts 238°
2026-04-17 19:16 59.60170 18.47010 20946 ft 365 kts 238°
2026-04-17 19:16 59.58749 18.42844 21351 ft 367 kts 238°
2026-04-17 19:16 59.57317 18.38663 21753 ft 369 kts 238°
2026-04-17 19:16 59.55872 18.34459 22161 ft 371 kts 238°
2026-04-17 19:17 59.54423 18.30251 22551 ft 373 kts 238°
2026-04-17 19:17 59.52963 18.26016 22937 ft 375 kts 238°
2026-04-17 19:17 59.51493 18.21758 23328 ft 377 kts 238°
2026-04-17 19:17 59.50015 18.17481 23734 ft 379 kts 238°
2026-04-17 19:18 59.48528 18.13185 24084 ft 381 kts 238°
2026-04-17 19:18 59.47032 18.08873 24427 ft 382 kts 238°
2026-04-17 19:18 59.45531 18.04555 24756 ft 384 kts 238°
2026-04-17 19:18 59.44020 18.00217 25082 ft 385 kts 238°
2026-04-17 19:19 59.42499 17.95870 25406 ft 387 kts 238°
2026-04-17 19:19 59.40972 17.91513 25695 ft 388 kts 238°
2026-04-17 19:19 59.39443 17.87149 25986 ft 390 kts 238°
2026-04-17 19:19 59.37899 17.82751 26262 ft 391 kts 238°
2026-04-17 19:20 59.36354 17.78358 26532 ft 393 kts 238°
2026-04-17 19:20 59.34794 17.73931 26799 ft 394 kts 238°
2026-04-17 19:20 59.33235 17.69515 27068 ft 396 kts 238°
2026-04-17 19:20 59.31666 17.65074 27326 ft 397 kts 238°
2026-04-17 19:21 59.30089 17.60631 27574 ft 399 kts 238°
2026-04-17 19:21 59.28498 17.56155 27820 ft 400 kts 238°
2026-04-17 19:21 59.26904 17.51679 28066 ft 402 kts 238°
2026-04-17 19:21 59.25304 17.47195 28302 ft 403 kts 238°
2026-04-17 19:22 59.23695 17.42692 28536 ft 405 kts 238°
2026-04-17 19:22 59.22080 17.38174 28766 ft 406 kts 238°
2026-04-17 19:22 59.20460 17.33654 28992 ft 408 kts 238°
2026-04-17 19:22 59.18826 17.29114 29201 ft 409 kts 238°
2026-04-17 19:23 59.17187 17.24569 29421 ft 411 kts 238°
2026-04-17 19:23 59.13898 17.15452 29846 ft 413 kts 238°
2026-04-17 19:23 59.12237 17.10865 30023 ft 414 kts 238°
2026-04-17 19:24 59.10573 17.06278 30203 ft 416 kts 238°
2026-04-17 19:24 59.08899 17.01673 30391 ft 417 kts 238°
2026-04-17 19:24 59.07221 16.97067 30549 ft 418 kts 238°
2026-04-17 19:24 59.05538 16.92458 30718 ft 419 kts 238°
2026-04-17 19:25 59.03845 16.87827 30868 ft 420 kts 238°
2026-04-17 19:25 59.02150 16.83195 31016 ft 421 kts 238°
2026-04-17 19:25 59.00452 16.78570 31158 ft 422 kts 238°
2026-04-17 19:25 58.98755 16.73961 31410 ft 420 kts 238°
2026-04-17 19:26 58.97049 16.69330 31294 ft 423 kts 238°
2026-04-17 19:26 58.93625 16.60062 31291 ft 423 kts 238°
2026-04-17 19:27 58.89985 16.51001 31295 ft 435 kts 225°
2026-04-17 19:27 58.85244 16.43494 31263 ft 446 kts 221°
2026-04-17 19:28 58.80337 16.36015 31289 ft 453 kts 222°
2026-04-17 19:28 58.75385 16.28333 31296 ft 461 kts 222°
2026-04-17 19:29 58.70390 16.20583 31289 ft 467 kts 223°
2026-04-17 19:29 58.65321 16.12633 31295 ft 472 kts 223°
2026-04-17 19:30 58.60270 16.04762 31894 ft 459 kts 223°
2026-04-17 19:30 58.57789 16.00918 32066 ft 459 kts 223°
2026-04-17 19:30 58.55308 15.97071 32119 ft 461 kts 223°
2026-04-17 19:31 58.50283 15.89299 32128 ft 467 kts 223°
2026-04-17 19:31 58.45199 15.81473 32154 ft 472 kts 223°
2026-04-17 19:32 58.40071 15.73611 32353 ft 472 kts 222°
2026-04-17 19:32 58.37517 15.69711 32641 ft 468 kts 223°
2026-04-17 19:32 58.34987 15.65843 32841 ft 466 kts 223°
2026-04-17 19:33 58.29928 15.58118 33046 ft 466 kts 223°
2026-04-17 19:33 58.27395 15.54263 33191 ft 465 kts 223°
2026-04-17 19:33 58.24877 15.50441 33319 ft 465 kts 223°
2026-04-17 19:33 58.22346 15.46606 33461 ft 464 kts 223°
2026-04-17 19:34 58.19826 15.42793 33591 ft 464 kts 223°
2026-04-17 19:34 58.17307 15.38990 33708 ft 463 kts 223°
2026-04-17 19:34 58.14782 15.35185 33833 ft 463 kts 223°
2026-04-17 19:34 58.12267 15.31403 33963 ft 462 kts 223°
2026-04-17 19:35 58.09750 15.27625 34093 ft 462 kts 223°
2026-04-17 19:35 58.07286 15.23814 34366 ft 449 kts 225°
2026-04-17 19:35 58.04970 15.19846 34390 ft 451 kts 227°
2026-04-17 19:36 58.00367 15.11680 34275 ft 456 kts 227°
2026-04-17 19:36 57.95644 15.03634 34284 ft 459 kts 226°
2026-04-17 19:37 57.90887 14.95626 34276 ft 458 kts 226°
2026-04-17 19:37 57.86141 14.87641 34280 ft 458 kts 226°
2026-04-17 19:38 57.81394 14.79678 34282 ft 457 kts 227°
2026-04-17 19:38 57.76649 14.71748 34274 ft 457 kts 227°
2026-04-17 19:39 57.71900 14.63844 34274 ft 457 kts 227°
2026-04-17 19:39 57.67156 14.55971 34268 ft 456 kts 227°
2026-04-17 19:40 57.62401 14.48112 34275 ft 456 kts 227°
2026-04-17 19:40 57.57640 14.40271 34270 ft 456 kts 227°
2026-04-17 19:41 57.52877 14.32457 34265 ft 456 kts 227°
2026-04-17 19:41 57.48112 14.24672 34255 ft 456 kts 227°
2026-04-17 19:42 57.43353 14.16918 34248 ft 456 kts 227°
2026-04-17 19:42 57.38578 14.09167 34240 ft 455 kts 227°
2026-04-17 19:43 57.33842 14.01507 34242 ft 455 kts 227°
2026-04-17 19:43 57.29067 13.93809 34241 ft 455 kts 227°
2026-04-17 19:44 57.24283 13.86130 34251 ft 455 kts 227°
2026-04-17 19:44 57.19501 13.78479 34256 ft 455 kts 227°
2026-04-17 19:45 57.14710 13.70839 34265 ft 455 kts 227°
2026-04-17 19:45 57.10034 13.63009 34277 ft 454 kts 230°
2026-04-17 19:46 57.05399 13.55135 34278 ft 454 kts 229°
2026-04-17 19:46 57.00725 13.47318 34281 ft 455 kts 229°
2026-04-17 19:47 56.96044 13.39528 34281 ft 455 kts 229°
2026-04-17 19:47 56.91362 13.31755 34282 ft 455 kts 229°
2026-04-17 19:48 56.86672 13.23998 34286 ft 455 kts 229°
2026-04-17 19:48 56.81972 13.16245 34290 ft 455 kts 229°
2026-04-17 19:49 56.77270 13.08518 34291 ft 455 kts 229°
2026-04-17 19:49 56.72558 13.00806 34294 ft 455 kts 229°
2026-04-17 19:50 56.67871 12.93163 34297 ft 456 kts 229°
2026-04-17 19:50 56.63146 12.85486 34296 ft 456 kts 229°
2026-04-17 19:51 56.58420 12.77830 34295 ft 456 kts 228°
2026-04-17 19:51 56.53681 12.70181 34292 ft 456 kts 228°
2026-04-17 19:52 56.48943 12.62560 34290 ft 456 kts 228°
2026-04-17 19:52 56.44200 12.54956 34290 ft 456 kts 228°
2026-04-17 19:53 56.39451 12.47372 34291 ft 455 kts 228°
2026-04-17 19:53 56.34707 12.39824 34291 ft 455 kts 228°
2026-04-17 19:54 56.29952 12.32279 34291 ft 455 kts 228°
2026-04-17 19:54 56.25201 12.24762 34450 ft 449 kts 228°
2026-04-17 19:54 56.22885 12.21105 34951 ft 441 kts 227°
2026-04-17 19:55 56.20692 12.17301 35064 ft 436 kts 233°
2026-04-17 19:55 56.16645 12.09127 35045 ft 440 kts 236°
2026-04-17 19:56 56.12613 12.00745 35055 ft 446 kts 234°
2026-04-17 19:56 56.08456 11.92393 35070 ft 452 kts 234°
2026-04-17 19:57 56.04256 11.83974 35103 ft 455 kts 234°
2026-04-17 19:57 56.02150 11.79751 35301 ft 453 kts 234°
2026-04-17 19:57 56.00060 11.75574 35574 ft 449 kts 234°
2026-04-17 19:57 55.97987 11.71441 35824 ft 445 kts 234°
2026-04-17 19:58 55.95931 11.67344 36078 ft 441 kts 234°
2026-04-17 19:58 55.93907 11.63328 36440 ft 431 kts 233°
2026-04-17 19:58 55.91900 11.59337 36364 ft 434 kts 234°
2026-04-17 19:58 55.89873 11.55294 36260 ft 439 kts 234°
2026-04-17 19:59 55.87838 11.51249 36272 ft 438 kts 233°
2026-04-17 19:59 55.83756 11.43180 36278 ft 439 kts 233°
2026-04-17 20:00 55.80330 11.36427 36279 ft 438 kts 233°
2026-04-17 20:00 55.76269 11.28452 36278 ft 438 kts 233°
2026-04-17 20:01 55.72157 11.20396 36276 ft 437 kts 233°
2026-04-17 20:01 55.68094 11.12466 36281 ft 437 kts 233°
2026-04-17 20:02 55.64005 11.04510 36274 ft 437 kts 233°
2026-04-17 20:02 55.59920 10.96589 36285 ft 436 kts 233°
2026-04-17 20:03 55.55828 10.88679 36283 ft 437 kts 233°
2026-04-17 20:03 55.51706 10.80736 36277 ft 440 kts 232°
2026-04-17 20:04 55.47553 10.72767 36280 ft 443 kts 232°
2026-04-17 20:04 55.43362 10.64751 36272 ft 446 kts 232°
2026-04-17 20:05 55.39150 10.56721 36263 ft 446 kts 232°
2026-04-17 20:05 55.34939 10.48720 36265 ft 445 kts 232°
2026-04-17 20:06 55.30741 10.40769 36269 ft 444 kts 232°
2026-04-17 20:06 55.26549 10.32856 36271 ft 443 kts 232°
2026-04-17 20:07 55.22344 10.24949 36269 ft 442 kts 232°
2026-04-17 20:07 55.18152 10.17080 36267 ft 441 kts 231°
2026-04-17 20:08 55.13962 10.09243 36265 ft 440 kts 231°
2026-04-17 20:08 55.09779 10.01454 36266 ft 440 kts 231°
2026-04-17 20:09 55.05593 9.93678 36267 ft 439 kts 231°
2026-04-17 20:09 55.01417 9.85940 36268 ft 438 kts 231°
2026-04-17 20:10 54.97526 9.77883 36290 ft 431 kts 239°
2026-04-17 20:10 54.94085 9.69334 36265 ft 431 kts 239°
2026-04-17 20:11 54.90663 9.60788 36268 ft 430 kts 239°
2026-04-17 20:11 54.87243 9.52266 36258 ft 430 kts 239°
2026-04-17 20:12 54.83819 9.43769 36249 ft 429 kts 239°
2026-04-17 20:12 54.80394 9.35305 36244 ft 428 kts 238°
2026-04-17 20:13 54.76970 9.26867 36238 ft 428 kts 238°
2026-04-17 20:13 54.73548 9.18463 36237 ft 427 kts 238°
2026-04-17 20:14 54.70116 9.10062 36237 ft 427 kts 238°
2026-04-17 20:14 54.66685 9.01694 36236 ft 427 kts 238°
2026-04-17 20:15 54.63247 8.93337 36233 ft 426 kts 238°
2026-04-17 20:15 54.59807 8.85001 36227 ft 426 kts 238°
2026-04-17 20:16 54.56368 8.76695 36225 ft 426 kts 237°
2026-04-17 20:16 54.52550 8.68919 36254 ft 429 kts 225°
2026-04-17 20:17 54.48043 8.62164 36218 ft 430 kts 224°
2026-04-17 20:17 54.43502 8.55487 36216 ft 429 kts 224°
2026-04-17 20:18 54.38964 8.48838 36211 ft 429 kts 224°
2026-04-17 20:18 54.34424 8.42201 36214 ft 428 kts 224°
2026-04-17 20:19 54.29911 8.35567 36212 ft 427 kts 224°
2026-04-17 20:19 54.25399 8.28961 36212 ft 427 kts 224°
2026-04-17 20:20 54.20872 8.22385 36216 ft 426 kts 224°
2026-04-17 20:20 54.16353 8.15841 36217 ft 426 kts 224°
2026-04-17 20:21 54.11860 8.09355 36219 ft 426 kts 224°
2026-04-17 20:21 54.07338 8.02845 36221 ft 425 kts 224°
2026-04-17 20:22 54.02819 7.96358 36223 ft 425 kts 224°
2026-04-17 20:22 53.98303 7.89895 36220 ft 424 kts 223°
2026-04-17 20:23 53.93783 7.83444 36218 ft 424 kts 223°
2026-04-17 20:23 53.89267 7.77018 36214 ft 424 kts 223°
2026-04-17 20:24 53.84749 7.70608 36215 ft 423 kts 223°
2026-04-17 20:24 53.80226 7.64210 36211 ft 423 kts 223°
2026-04-17 20:25 53.75707 7.57838 36212 ft 423 kts 223°
2026-04-17 20:25 53.71189 7.51484 36211 ft 423 kts 223°
2026-04-17 20:26 53.66646 7.45111 36213 ft 426 kts 223°
2026-04-17 20:26 53.62060 7.38698 36204 ft 430 kts 223°
2026-04-17 20:27 53.57487 7.32324 36207 ft 430 kts 222°
2026-04-17 20:27 53.52888 7.25934 36204 ft 429 kts 222°
2026-04-17 20:28 53.48288 7.19557 36206 ft 428 kts 222°
2026-04-17 20:28 53.43696 7.13210 36212 ft 428 kts 222°
2026-04-17 20:29 53.39100 7.06877 36211 ft 427 kts 222°
2026-04-17 20:29 53.34518 7.00582 36214 ft 427 kts 222°
2026-04-17 20:30 53.28492 6.89800 36201 ft 422 kts 230°
2026-04-17 20:30 53.24624 6.82422 36192 ft 422 kts 231°
2026-04-17 20:31 53.20764 6.75042 36187 ft 422 kts 231°
2026-04-17 20:31 53.16904 6.67690 36186 ft 421 kts 230°
2026-04-17 20:32 53.13083 6.60292 36185 ft 421 kts 231°
2026-04-17 20:32 53.09307 6.52851 36189 ft 421 kts 231°
2026-04-17 20:33 53.05516 6.45457 36184 ft 420 kts 231°
2026-04-17 20:33 53.01712 6.38069 36182 ft 420 kts 231°
2026-04-17 20:34 52.97913 6.30707 36179 ft 420 kts 231°
2026-04-17 20:34 52.94112 6.23365 36186 ft 420 kts 231°
2026-04-17 20:35 52.90306 6.16036 36398 ft 413 kts 230°
2026-04-17 20:35 52.88452 6.12477 36820 ft 406 kts 231°
2026-04-17 20:35 52.86614 6.08947 36999 ft 403 kts 231°
2026-04-17 20:36 52.82965 6.01955 37023 ft 406 kts 230°
2026-04-17 20:36 52.79243 5.94845 37079 ft 403 kts 230°
2026-04-17 20:37 52.77415 5.91362 37209 ft 400 kts 230°
2026-04-17 20:37 52.75619 5.87946 37340 ft 398 kts 230°
2026-04-17 20:37 52.73783 5.84459 37481 ft 396 kts 230°
2026-04-17 20:37 52.72009 5.81094 37619 ft 393 kts 230°
2026-04-17 20:38 52.70212 5.77699 37759 ft 391 kts 230°
2026-04-17 20:38 52.68431 5.74337 37889 ft 388 kts 230°
2026-04-17 20:38 52.66665 5.71007 38038 ft 385 kts 230°
2026-04-17 20:38 52.64908 5.67703 38180 ft 382 kts 230°
2026-04-17 20:39 52.61407 5.61119 38209 ft 382 kts 230°
2026-04-17 20:39 52.57912 5.54565 38227 ft 382 kts 230°
2026-04-17 20:40 52.54401 5.48001 38229 ft 382 kts 230°
2026-04-17 20:40 52.50888 5.41452 38235 ft 382 kts 230°
2026-04-17 20:41 52.47367 5.34900 38211 ft 383 kts 230°
2026-04-17 20:41 52.43832 5.28345 38205 ft 384 kts 230°
2026-04-17 20:42 52.40289 5.21794 38208 ft 384 kts 230°
2026-04-17 20:42 52.36746 5.15254 38202 ft 384 kts 230°
2026-04-17 20:43 52.33473 5.08407 38206 ft 382 kts 245°
2026-04-17 20:43 52.31668 5.00240 38179 ft 383 kts 250°
2026-04-17 20:44 52.29924 4.92038 38209 ft 383 kts 251°
2026-04-17 20:44 52.28523 4.85186 38208 ft 383 kts 251°
2026-04-17 20:45 52.26826 4.76930 38212 ft 383 kts 251°
2026-04-17 20:45 52.25118 4.68723 38213 ft 384 kts 250°
2026-04-17 20:46 52.23389 4.60440 38209 ft 384 kts 251°
2026-04-17 20:46 52.21662 4.52178 38209 ft 385 kts 250°
2026-04-17 20:47 52.19931 4.43918 38214 ft 387 kts 250°
2026-04-17 20:47 52.18179 4.35611 38210 ft 388 kts 250°
2026-04-17 20:48 52.16415 4.27276 38210 ft 389 kts 250°
2026-04-17 20:48 52.14644 4.18942 38212 ft 390 kts 250°
2026-04-17 20:49 52.12861 4.10583 38214 ft 391 kts 250°
2026-04-17 20:49 52.11069 4.02221 38211 ft 392 kts 250°
2026-04-17 20:50 52.09265 3.93835 38212 ft 393 kts 250°
2026-04-17 20:50 52.07450 3.85432 38208 ft 394 kts 250°
2026-04-17 20:51 52.05622 3.77022 38203 ft 395 kts 250°
2026-04-17 20:51 52.03785 3.68604 38200 ft 396 kts 250°
2026-04-17 20:52 52.01934 3.60150 38198 ft 397 kts 250°
2026-04-17 20:52 52.00077 3.51706 38197 ft 398 kts 250°
2026-04-17 20:53 51.98997 3.42954 38185 ft 400 kts 259°
2026-04-17 20:53 51.98150 3.34036 38199 ft 400 kts 259°
2026-04-17 20:54 51.97307 3.25106 38202 ft 401 kts 259°
2026-04-17 20:54 51.96452 3.16144 38201 ft 402 kts 259°
2026-04-17 20:55 51.95843 3.07118 38197 ft 404 kts 263°
2026-04-17 20:55 51.95316 2.98049 38190 ft 404 kts 262°
2026-04-17 20:56 51.94722 2.88994 38195 ft 405 kts 262°
2026-04-17 20:56 51.94111 2.79905 38193 ft 405 kts 261°
2026-04-17 20:57 51.93499 2.70829 38195 ft 406 kts 261°
2026-04-17 20:57 51.92880 2.61738 38194 ft 406 kts 261°
2026-04-17 20:58 51.92257 2.52670 38188 ft 404 kts 261°
2026-04-17 20:58 51.91630 2.43660 38184 ft 401 kts 261°
2026-04-17 20:59 51.90998 2.34679 38197 ft 402 kts 261°
2026-04-17 20:59 51.90675 2.25629 38184 ft 404 kts 264°
2026-04-17 21:00 51.90459 2.16535 38186 ft 404 kts 264°
2026-04-17 21:00 51.90247 2.07457 38186 ft 403 kts 264°
2026-04-17 21:01 51.90025 1.98463 38184 ft 402 kts 264°
2026-04-17 21:01 51.89730 1.89425 38189 ft 399 kts 257°
2026-04-17 21:02 51.88143 1.80831 38184 ft 397 kts 250°
2026-04-17 21:02 51.86484 1.72371 38178 ft 397 kts 250°
2026-04-17 21:03 51.84756 1.63877 38169 ft 398 kts 249°
2026-04-17 21:03 51.83008 1.55363 38181 ft 398 kts 249°
2026-04-17 21:04 51.81269 1.46898 38168 ft 396 kts 249°
2026-04-17 21:04 51.79526 1.38455 38179 ft 397 kts 249°
2026-04-17 21:05 51.77769 1.29978 38175 ft 398 kts 249°
2026-04-17 21:05 51.76007 1.21515 38172 ft 398 kts 249°
2026-04-17 21:06 51.74236 1.13044 38171 ft 397 kts 249°
2026-04-17 21:06 51.72473 1.04652 38182 ft 395 kts 249°
2026-04-17 21:07 51.70703 0.96257 38184 ft 396 kts 248°
2026-04-17 21:07 51.68525 0.88135 38180 ft 395 kts 244°
2026-04-17 21:08 51.66270 0.80032 38188 ft 397 kts 244°
2026-04-17 21:08 51.64064 0.72162 38185 ft 398 kts 244°
2026-04-17 21:09 51.61789 0.64061 38178 ft 398 kts 244°
2026-04-17 21:09 51.59418 0.56016 38189 ft 395 kts 242°
2026-04-17 21:10 51.56934 0.48137 38184 ft 395 kts 240°
2026-04-17 21:10 51.54361 0.40351 38186 ft 396 kts 240°
2026-04-17 21:11 51.51787 0.32481 38179 ft 398 kts 240°
2026-04-17 21:11 51.51360 0.31166 38188 ft 398 kts 240°
2026-04-17 21:12 51.50142 0.27425 38158 ft 398 kts 240°
2026-04-17 21:12 51.47558 0.19546 38119 ft 399 kts 240°
2026-04-17 21:13 51.44973 0.11735 38082 ft 399 kts 240°
2026-04-17 21:13 51.42349 0.03884 38056 ft 400 kts 240°
2026-04-17 21:14 51.40300 -0.02204 38034 ft 400 kts 240°
2026-04-17 21:14 51.37663 -0.09974 38015 ft 400 kts 239°
2026-04-17 21:15 51.34990 -0.17778 37974 ft 400 kts 239°
2026-04-17 21:15 51.32284 -0.25603 37963 ft 400 kts 239°
2026-04-17 21:16 51.29616 -0.33252 37951 ft 399 kts 239°
2026-04-17 21:16 51.26880 -0.41030 37929 ft 399 kts 239°
2026-04-17 21:17 51.24159 -0.48698 37917 ft 399 kts 239°
2026-04-17 21:17 51.21408 -0.56376 37909 ft 399 kts 238°
2026-04-17 21:18 51.18640 -0.64037 37882 ft 399 kts 238°
2026-04-17 21:18 51.15860 -0.71667 37856 ft 398 kts 238°
2026-04-17 21:19 51.13061 -0.79275 37831 ft 398 kts 238°
2026-04-17 21:19 51.10245 -0.86868 37800 ft 398 kts 238°
2026-04-17 21:20 51.07416 -0.94433 37793 ft 398 kts 238°
2026-04-17 21:20 51.04574 -1.01974 37793 ft 398 kts 237°
2026-04-17 21:21 51.01716 -1.09489 37852 ft 397 kts 237°
2026-04-17 21:21 50.98839 -1.16988 37858 ft 397 kts 237°
2026-04-17 21:22 50.95951 -1.24466 37840 ft 398 kts 237°
2026-04-17 21:22 50.93047 -1.31920 37846 ft 397 kts 237°
2026-04-17 21:23 50.90122 -1.39362 37850 ft 398 kts 237°
2026-04-17 21:23 50.87185 -1.46772 37877 ft 398 kts 236°
2026-04-17 21:24 50.84097 -1.54005 37692 ft 392 kts 206°
2026-04-17 21:24 50.81616 -1.55032 32018 ft 376 kts 180°
2026-04-17 21:24 50.78898 -1.53491 24987 ft 449 kts 153°
2026-04-17 21:25 50.78543 -1.49208 19386 ft 473 kts 20°
2026-04-17 21:25 50.80643 -1.48813 23093 ft 13 kts 205°